Petros Karapetyan

首席球探 - Ararat-Armenia
20 十一月 2027
星期六
處理

性格

適應力 (16) 野心 (20) 爭議性 (4) 忠誠度 (6) 抗壓 (3) 職業素養 (19) 體育精神 (13) 性情 (11)

個人檔案

執教風格 民主型
教練證照 洲際職業級
決心 4
人員管理 10
激勵 3
紀律 7
工作滿意度
100%
疲勞度
0%
職務 首席球探
薪資 46.7K 每週
合約 14.03.2030

性能

行為 良好
訓練效果
31%
球員發展
40%
傷病預防
45%
戰術執行
30%

近期事件

考察了一名球員 刚刚
参加了招募会议 刚刚
参加了招募会议 7天前
考察了一名球員 7天前
考察了一名球員 7天前
考察了一名球員 7天前
考察了一名球員 7天前
考察了一名球員 7天前

正在监控

142
球員 俱樂部 狀態 能力 信心 已观察 最后观察 最新投票
Lucio Castillo Colegiales 活跃 105 / 105 40% 3 19.11.2027 -
Nathan Fogaça Fortaleza 活跃 118 / 134 40% 1 19.11.2027 -
Augusto Berrondo Tristán Suárez 活跃 120 / 110 40% 3 18.11.2027 -
Justo Giani Belgrano 活跃 115 / 119 40% 2 18.11.2027 -
Tiziano Dornell Almagro 活跃 114 / 119 40% 4 15.11.2027 -
Martín Álvarez Tristán Suárez 活跃 107 / 110 40% 3 15.11.2027 -
Marius Noubissi Pyunik 活跃 124 / 113 40% 5 14.11.2027 -
Luca Franco Arsenal 活跃 107 / 102 40% 2 14.11.2027 -
Nicolás Fernández Belgrano 活跃 121 / 134 40% 4 13.11.2027 -
Franco Ayunta Temperley 活跃 112 / 101 40% 4 13.11.2027 -
Jonathan Cañete Portuguesa 活跃 121 / 111 40% 8 12.11.2027 -
Richard Figueroa Deportivo Lara 活跃 108 / 99 40% 3 12.11.2027 -
Santiago Apa All Boys 活跃 104 / 102 40% 3 10.11.2027 -
Franco Fagúndez Estudiantes 活跃 118 / 107 40% 3 09.11.2027 -
Facundo Pons San Martín 活跃 116 / 107 40% 3 09.11.2027 -
Alan Bonansea Colón 活跃 112 / 108 40% 2 08.11.2027 -
Genaro Rossi San Martín SJ 活跃 106 / 107 40% 3 08.11.2027 -
Junior Paredes Trujillanos 活跃 113 / 94 40% 1 03.11.2027 -
Fabricio Rojas Gimnasia y Tiro 活跃 104 / 103 40% 1 01.11.2027 -
Juan Rocca Gimnasia y Tiro 活跃 103 / 101 40% 4 31.10.2027 -
Jorginho Kairat 活跃 117 / 122 40% 2 30.10.2027 -
Oscar Osorio Atletico Venezuela 活跃 102 / 121 40% 4 29.10.2027 -
Enzo González Defensores 活跃 116 / 107 40% 2 29.10.2027 -
Agustín Lavezzi Quilmes 活跃 116 / 120 40% 7 28.10.2027 -
Juan David Rueda Alianza Petrolera 活跃 111 / 118 40% 4 27.10.2027 -
Lucas Ríos Atlanta 活跃 125 / 106 40% 1 26.10.2027 -
Richard Celis Zamora 活跃 109 / 104 40% 3 23.10.2027 -
Shohruhbek Abdurahmonov Navbahor 活跃 108 / 95 40% 1 23.10.2027 -
Lautaro Gordillo Colegiales 活跃 113 / 114 40% 5 21.10.2027 -
Nicolás Sosa Racing 活跃 120 / 114 40% 2 21.10.2027 -
Carlos Gugenheim Almirante Brown 活跃 117 / 113 40% 4 20.10.2027 -
Léo Natel Ordabasy 活跃 126 / 103 40% 1 20.10.2027 -
Renzo Reynaga Patronato 活跃 115 / 104 40% 2 15.10.2027 -
Facundo Castro Nueva Chicago 活跃 104 / 114 40% 3 14.10.2027 -
Algassime Bah Dinamo Tbilisi 活跃 101 / 114 40% 2 14.10.2027 -
Thiago Calone All Boys 活跃 124 / 115 40% 5 05.10.2027 -
Oscar Ferraresi Llaneros 活跃 114 / 113 40% 1 04.10.2027 -
Marco Miori Alvarado 活跃 122 / 113 40% 4 01.10.2027 -
Flamarion Pakhtakor 活跃 120 / 108 40% 3 01.10.2027 -
Gonzalo Flores Almirante Brown 活跃 109 / 107 40% 2 23.09.2027 -
Gianluca Pugliese Güemes 活跃 108 / 115 40% 1 20.09.2027 -
Edmilson Kairat 活跃 123 / 116 40% 1 16.09.2027 -
Rubin Hebaj Tobol 活跃 111 / 112 40% 1 13.09.2027 -
José Balza Deportivo Tachira 活跃 105 / 107 40% 1 12.09.2027 -
Enzo Avaro Mitre 活跃 104 / 108 40% 1 09.09.2027 -
Lisandro Cabrera Maipú 活跃 121 / 120 40% 2 04.09.2027 -
Aziz Xolmurodov AGMK 活跃 105 / 119 40% 1 04.09.2027 -
Cheickna Samaké Djoliba 活跃 121 / 110 40% 2 29.08.2027 -
Santiago Sala Güemes 活跃 125 / 117 40% 1 29.08.2027 -
Marcos Camarda Santiago Wanderers 活跃 98 / 107 40% 3 23.08.2027 -
Jhon Murillo America de Cali 活跃 120 / 121 40% 3 23.08.2027 -
Michele Emmausso Cosenza 活跃 118 / 98 40% 2 19.08.2027 -
Andrea Mattioli Arzignano 活跃 108 / 89 40% 1 14.08.2027 -
Ettore Gliozzi Mantova 活跃 110 / 105 40% 3 13.08.2027 -
Mattia Iori Lumezzane 活跃 119 / 118 40% 2 13.08.2027 -
Daniel Udoh Salford City 活跃 110 / 114 40% 3 09.08.2027 -
Jacopo Desogus AlbinoLeffe 活跃 114 / 119 40% 1 09.08.2027 -
Hakeeb Adelakun Doncaster Rovers 活跃 96 / 93 40% 4 08.08.2027 -
Rob Street Lincoln City 活跃 99 / 123 40% 1 05.08.2027 -
Felipe Fernández Virtus Entella 活跃 95 / 93 40% 1 01.08.2027 -
Nicola Dalmonte Trento 活跃 117 / 119 40% 2 27.07.2027 -
Giacomo Zecca Torres 活跃 113 / 122 40% 1 25.07.2027 -
Bruno Gomes Valletta 活跃 89 / 106 40% 5 22.07.2027 -
Rodrigo Pollero Deportivo Tachira 活跃 98 / 104 40% 2 17.07.2027 -
Borna Knezović Casarano 活跃 107 / 130 40% 1 16.07.2027 -
Midana Cassamá Portimonense 活跃 101 / 122 40% 1 15.07.2027 -
Luka Reischl ADO Den Haag 活跃 127 / 100 40% 1 13.07.2027 -
Jonathan Okoronkwo Torpedo Moscow 活跃 98 / 92 40% 3 11.07.2027 -
Isaac Tshibangu Emirates Club 活跃 105 / 113 40% 1 11.07.2027 -
German Onugkha Rodina 活跃 140 / 106 40% 6 10.07.2027 -
Ilja Safronov Rotor 活跃 96 / 112 40% 3 10.07.2027 -
Edarlyn Reyes Arsenal Tula 活跃 120 / 102 40% 1 06.07.2027 -
Gor Matinyan Urartu 已拒绝 100 / 105 58% 1 05.07.2027 -
Emanuele Schimmenti Potenza 活跃 122 / 101 40% 1 03.07.2027 -
Patrick Schmidt Tarxien Rainbows 活跃 107 / 108 40% 2 02.07.2027 -
Jordan Larsson Al-Ettifaq 活跃 138 / 107 40% 1 01.07.2027 -
Prince Ibara Al-Njoom 活跃 94 / 84 40% 1 29.06.2027 -
Zaven Khudaverdyan Noah 已拒绝 99 / 104 58% 1 21.06.2027 -
Khariton Ayvazyan Urartu 已拒绝 104 / 91 58% 1 03.06.2027 -
Vyacheslav Grulev Nizhniy Novgorod 活跃 118 / 104 40% 2 30.12.2026 -
Georgy Melkadze Akhmat Grozny 活跃 111 / 98 40% 1 28.12.2026 -
David Davidyan Rotor 活跃 100 / 110 40% 2 27.12.2026 -
Peter Olayinka Al-Wehda 活跃 106 / 110 40% 1 27.12.2026 -
Mikhail Ignatov Sochi 活跃 101 / 124 40% 2 23.12.2026 -
Felipe Anderson Palmeiras 已拒绝 123 / 127 40% 1 23.12.2026 -
Slobodan Tedić Akron 活跃 101 / 101 40% 2 22.12.2026 -
Georginio Wijnaldum Al-Ettifaq 活跃 147 / 121 40% 2 22.12.2026 -
Ryder Matos Hibernians 活跃 92 / 107 40% 2 21.12.2026 -
Sadio Mané Al-Nassr 活跃 163 / 154 40% 1 21.12.2026 -
Dilan Ortíz Ufa 活跃 86 / 116 40% 1 20.12.2026 -
Diamanka Senghor Mosta 活跃 102 / 93 40% 1 19.12.2026 -
Abderrazak Hamdallah 活跃 142 / 107 40% 1 18.12.2026 -
Pachu Kapaz 活跃 94 / 88 40% 4 17.12.2026 -
Michael Cheek Bromley 活跃 92 / 102 40% 2 17.12.2026 -
Bahlul Mammadov Inter 已拒绝 121 / 124 40% 4 13.12.2026 -
François Kamano Sochi 已拒绝 105 / 119 40% 1 09.12.2026 -
Chinedu Geoffrey Krylya Sovetov 活跃 122 / 112 40% 2 02.12.2026 -
Shamil Saaduev Pobeda 活跃 65 / 67 40% 1 01.12.2026 -
Alexandr Yushin Torpedo Moscow 活跃 108 / 96 40% 2 29.11.2026 -
Franklin Sasere Birkirkara 活跃 91 / 81 40% 1 28.11.2026 -
Davit Volkovi Zira 活跃 119 / 114 40% 2 27.11.2026 -
Max Svensson Penafiel 活跃 122 / 105 40% 2 26.11.2026 -
Denzel Jubitana Neftchi 活跃 128 / 121 40% 2 26.11.2026 -
Tenton Yenne Baltika 活跃 102 / 91 40% 2 24.11.2026 -
Vladimir Khubulov Dinamo Makhachkala 活跃 93 / 120 40% 1 23.11.2026 -
Dmitry Lesnikov Volgar 活跃 109 / 79 40% 1 22.11.2026 -
Isaac Matondo Koper 活跃 111 / 123 40% 1 15.11.2026 -
Alex Tanque Valletta 活跃 87 / 75 40% 2 12.11.2026 -
Oumar Camara Vitoria Guimaraes 活跃 111 / 116 40% 1 07.11.2026 -
Uroš Đuranović Sliema Wanderers 活跃 107 / 86 40% 2 06.11.2026 -
Kamran Aliev SKA Khabarovsk 活跃 90 / 119 40% 1 30.10.2026 -
David Karaev KAMAZ 活跃 93 / 105 40% 1 24.10.2026 -
Marcelo Sliema Wanderers 活跃 69 / 100 40% 2 22.10.2026 -
Yeangel Montero Naxxar Lions 活跃 102 / 103 40% 2 18.10.2026 -
Ryan Oné Sheffield United 活跃 115 / 134 40% 1 17.10.2026 -
Nikos Karelis Sliema Wanderers 活跃 100 / 104 40% 1 17.10.2026 -
Khyzyr Appaev 活跃 106 / 91 40% 2 14.10.2026 -
Yusuf Otubanjo Nasaf 活跃 125 / 119 40% 2 12.10.2026 -
Mats Seuntjens Groningen 活跃 117 / 130 40% 1 11.10.2026 -
Kristian Eriksen Molde 活跃 141 / 107 40% 3 09.10.2026 -
Steven Alfred Torpedo-BelAZ 活跃 110 / 95 40% 1 09.10.2026 -
Hansel Ochieng APS Bomet 活跃 78 / 65 40% 1 07.10.2026 -
Patrick Otieno KCB 活跃 74 / 61 40% 1 03.10.2026 -
Valentin Costache Noah 已拒绝 118 / 124 40% 2 30.09.2026 -
Nyamawi Beja Bandari 活跃 76 / 95 40% 1 30.09.2026 -
Aaron Olanare Ararat 活跃 94 / 92 40% 1 29.09.2026 -
Momo Yansané Pyunik 活跃 107 / 102 40% 1 25.09.2026 -
David Sakwa Bandari 活跃 67 / 92 40% 2 23.09.2026 -
Martin Boakye Andijon 活跃 116 / 103 40% 1 23.09.2026 -
Maxim Maximov Smorgon 活跃 95 / 96 40% 1 22.09.2026 -
Samuel Ssenyonjo AFC Leopards 活跃 77 / 74 40% 1 21.09.2026 -
Jáder Obrian Santa Fe 活跃 114 / 118 40% 1 20.09.2026 -
Joel Kojo Navbahor 活跃 102 / 105 40% 1 19.09.2026 -
Léiner Escalante Independiente Medellin 活跃 100 / 100 40% 1 17.09.2026 -
Suleiman Abdullahi Shirak 活跃 98 / 96 40% 1 16.09.2026 -
Magnus Lankhof Dahlby Stabaek 活跃 86 / 97 40% 1 09.09.2026 -
Juan Cruz Zurbriggen San Telmo 活跃 99 / 102 40% 1 05.09.2026 -
Odah Marshall Noah 活跃 99 / 76 40% 1 05.09.2026 -
Lyova Mryan Shirak 活跃 92 / 83 40% 1 04.09.2026 -
Malick Berté Ararat 活跃 104 / 109 58% 1 10.08.2026 -
Lucas González Nacional 活跃 116 / 114 40% 1 03.08.2026 -
Danny Welbeck Chelsea 活跃 139 / 152 40% 1 01.08.2026 -